Waarnemingen

Advertentie
Mijn weer
Quimper, Frankrijk (7201): temperatuur & dauwpunt: 17.01.2018 08:00:00 - 23.01.2018 08:00:00 (CET)Quimper, Frankrijk (7201): temperatuur 5cm: 17.01.2018 08:00:00 - 23.01.2018 08:00:00 (CET)Quimper, Frankrijk (7201): temperatuur -20cm: 17.01.2018 08:00:00 - 23.01.2018 08:00:00 (CET)Quimper, Frankrijk (7201): windsnelheid & windstoten: 17.01.2018 08:00:00 - 23.01.2018 08:00:00 (CET)Quimper, Frankrijk (7201): windrichting: 17.01.2018 08:00:00 - 23.01.2018 08:00:00 (CET)Quimper, Frankrijk (7201): luchtdruk: 17.01.2018 08:00:00 - 23.01.2018 08:00:00 (CET)Quimper, Frankrijk (7201): zicht: 17.01.2018 08:00:00 - 23.01.2018 08:00:00 (CET)Quimper, Frankrijk (7201): Zonneschijnduur: 17.01.2018 08:00:00 - 23.01.2018 08:00:00 (CET)Quimper, Frankrijk (7201): neerslag: 17.01.2018 08:00:00 - 23.01.2018 08:00:00 (CET)
Datum & Tijd tt [°C] td [°C] tt 5cm [°C] tt -20cm [°C] ff [km/u] ff [kn] fx [km/u] fx [kn] dd ppp [hPa] vv [km] sd [min] rr [mm]
23.01.2018 08:00:00 11,9 11,6 11,8 9,8 23 13 40 21 ZW 1021,8 10 0 0,0
23.01.2018 07:00:00 11,8 11,6 11,7 9,8 23 13 38 20 WZW 1022,0 7 0 0,0
23.01.2018 06:00:00 11,8 11,6 11,7 9,8 23 12 39 21 WZW 1022,0 0,4 0 0,0
23.01.2018 05:00:00 11,8 11,6 11,3 9,8 20 11 31 17 WZW 1022,1 0,3 0 0,4
23.01.2018 04:00:00 11,4 11,1 10,7 9,8 10 6 22 12 ZZW 1022,2 1,5 0 1,2
23.01.2018 03:00:00 10,8 10,5 10,2 9,9 11 6 25 13 Z 1022,6 1,4 0 0,8
23.01.2018 02:00:00 10,4 10,1 9,4 9,9 14 8 24 13 Z 1023,0 1,4 0 0,2
23.01.2018 01:00:00 9,5 9,2 8,7 10,0 10 6 18 10 Z 1023,8 13 0 0,0
23.01.2018 00:00:00 8,7 8,4 7,1 10,1 8 5 13 7 Z 1024,0 1,7 0 0,0
22.01.2018 23:00:00 8,3 8,0 7,2 10,1 5 3 9 5 ZZW 1024,4 0,6 0 0,0
22.01.2018 22:00:00 8,3 7,9 7,2 10,2 5 3 8 5 ZZW 1024,3 0,4 0 0,0
22.01.2018 21:00:00 8,3 7,7 5,0 10,2 7 4 9 5 ZZW 1024,5 1,1 0 0,0
22.01.2018 20:00:00 8,2 7,4 6,3 10,3 5 3 11 6 WZW 1024,4 4,6 0 0,0
22.01.2018 19:00:00 8,3 6,9 5,9 10,3 8 4 13 7 W 1024,2 10 0 0,0
22.01.2018 18:00:00 8,7 6,5 7,3 10,2 9 5 24 13 W 1023,8 19 21 0,0
22.01.2018 17:00:00 11,0 7,9 11,0 10,2 18 10 36 19 WNW 1023,2 20 31 0,0
22.01.2018 16:00:00 11,0 7,7 11,1 10,2 24 13 39 21 WNW 1022,6 19 23 0,0
22.01.2018 15:00:00 11,0 7,9 11,1 10,2 21 11 38 20 WNW 1021,9 19 26 0,4
22.01.2018 14:00:00 11,2 8,2 11,2 10,2 25 14 47 26 NW 1021,6 19 2 0,0
22.01.2018 13:00:00 11,1 8,3 11,2 10,2 32 17 53 29 NW 1021,2 18 9 0,0
22.01.2018 12:00:00 11,1 8,5 11,2 10,2 32 17 56 30 NW 1020,5 16 26 0,0
22.01.2018 11:00:00 10,7 7,8 10,5 10,2 27 15 62 33 NW 1019,2 12 22 0,0
22.01.2018 10:00:00 10,6 8,2 10,3 10,2 36 19 74 40 NW 1017,5 16 0 0,0
22.01.2018 09:00:00 10,7 8,8 10,3 10,2 51 27 86 47 WNW 1015,1 17 0 0,0
22.01.2018 08:00:00 12,3 11,7 11,6 10,1 46 25 72 39 W 1013,7 6 0 0,0
22.01.2018 07:00:00 12,3 12,0 11,8 10,1 38 21 68 37 WZW 1014,1 5 0 0,0
22.01.2018 06:00:00 12,0 11,7 11,6 10,1 35 19 62 33 WZW 1014,5 2,0 0 0,0
22.01.2018 05:00:00 12,0 11,7 11,7 10,1 39 21 71 38 WZW 1015,2 6 0 0,0
22.01.2018 04:00:00 12,0 11,7 11,8 10,1 38 21 73 39 W 1015,9 8 0 0,0
22.01.2018 03:00:00 12,0 11,7 11,8 10,0 35 19 59 32 WZW 1016,4 3,0 0 0,0
22.01.2018 02:00:00 11,9 11,6 11,7 10,0 32 18 54 29 W 1016,8 1,7 0 0,0
22.01.2018 01:00:00 11,9 11,6 11,7 10,0 29 16 56 30 WZW 1017,4 1,9 0 0,0
22.01.2018 00:00:00 11,9 11,6 11,7 10,0 31 17 52 28 W 1017,6 1,2 0 0,0
21.01.2018 23:00:00 11,9 11,6 11,6 9,9 28 15 53 28 W 1017,9 2,3 0 0,0
21.01.2018 22:00:00 11,8 11,5 11,6 9,9 30 16 51 27 W 1018,2 2,0 0 0,0
21.01.2018 21:00:00 11,9 11,6 11,5 9,9 31 17 51 28 W 1018,3 1,6 0 0,0
21.01.2018 20:00:00 11,7 11,2 11,4 9,9 28 15 49 26 W 1018,3 1,2 0 0,0
21.01.2018 19:00:00 11,7 11,2 11,3 9,9 29 16 52 28 W 1018,5 1,6 0 0,0
21.01.2018 18:00:00 11,6 11,1 11,1 9,8 29 16 52 28 W 1018,6 1,9 0 0,0
21.01.2018 17:00:00 11,4 10,8 11,0 9,8 24 13 45 24 W 1019,0 1,5 0 0,0
21.01.2018 16:00:00 11,7 11,1 11,3 9,8 26 14 52 28 W 1019,0 5 0 0,0
21.01.2018 15:00:00 11,7 11,1 11,3 9,7 31 17 54 29 W 1019,0 7 0 0,0
21.01.2018 14:00:00 11,8 11,3 11,4 9,7 28 15 56 30 W 1019,3 5 0 0,0
21.01.2018 13:00:00 11,7 11,2 11,5 9,7 31 17 54 29 W 1019,8 3,2 0 0,0
21.01.2018 12:00:00 11,7 11,2 11,4 9,6 28 15 44 24 W 1020,1 1,8 0 0,0
21.01.2018 11:00:00 11,6 11,1 11,2 9,6 26 14 48 26 W 1019,8 2,9 0 0,0
21.01.2018 10:00:00 11,5 11,0 11,0 9,6 22 12 37 20 W 1019,6 2,6 0 0,0
21.01.2018 09:00:00 11,4 10,9 10,9 9,6 19 10 44 24 W 1019,5 3,1 0 0,0
21.01.2018 08:00:00 11,4 10,9 11,0 9,5 22 12 43 23 W 1018,9 8 0 0,0
21.01.2018 07:00:00 11,6 11,1 11,2 9,5 29 15 52 28 WNW 1018,5 2,6 0 0,0
21.01.2018 06:00:00 11,9 11,4 11,6 9,5 26 14 48 26 WNW 1018,3 2,5 0 0,0
21.01.2018 05:00:00 12,1 11,6 11,7 9,5 29 16 44 24 WNW 1017,6 2,1 0 0,0
21.01.2018 04:00:00 12,0 11,5 11,6 9,4 27 15 45 24 WNW 1017,4 1,8 0 0,0
21.01.2018 03:00:00 12,0 11,4 11,6 9,4 27 14 43 23 WNW 1017,1 1,9 0 0,0
21.01.2018 02:00:00 12,0 11,4 11,5 9,4 26 14 42 23 WNW 1016,7 2,0 0 0,0
21.01.2018 01:00:00 11,9 11,1 11,4 9,3 22 12 45 24 WNW 1016,6 4,9 0 0,0
21.01.2018 00:00:00 11,7 10,9 11,2 9,3 29 16 49 27 WNW 1016,0 3,6 0 0,0
20.01.2018 23:00:00 11,7 10,8 11,0 9,2 36 19 72 39 NW 1015,3 8 0 0,0
20.01.2018 22:00:00 11,6 10,5 11,0 9,2 42 23 66 36 WNW 1014,5 11 0 0,0
20.01.2018 21:00:00 11,7 10,6 11,2 9,1 45 24 78 42 WNW 1013,6 6 0 0,0
20.01.2018 20:00:00 11,9 11,0 11,3 9,0 47 25 76 41 WNW 1012,6 6 0 0,0
20.01.2018 19:00:00 12,0 11,1 11,5 9,0 47 26 79 43 WNW 1012,1 3,8 0 0,0
20.01.2018 18:00:00 12,0 11,1 11,5 8,9 43 23 76 41 WNW 1011,1 3,5 0 0,0
20.01.2018 17:00:00 12,2 11,3 11,6 8,8 46 25 75 41 WNW 1010,4 9 0 0,0
20.01.2018 16:00:00 12,2 11,3 11,7 8,8 44 24 79 42 WNW 1009,7 3,2 0 0,0
20.01.2018 15:00:00 12,3 11,4 11,9 8,7 39 21 71 38 WNW 1009,1 3,5 0 0,0
20.01.2018 14:00:00 12,4 11,6 12,1 8,6 40 22 73 39 WNW 1008,8 4,0 0 0,0
20.01.2018 13:00:00 12,5 11,7 12,1 8,5 41 22 74 40 WNW 1008,9 6 0 0,0
20.01.2018 12:00:00 12,7 11,9 12,0 8,4 43 23 74 40 WNW 1008,9 8 0 0,0
20.01.2018 11:00:00 12,5 11,9 11,9 8,3 42 23 69 38 WNW 1008,1 3,9 0 0,0
20.01.2018 10:00:00 12,3 11,7 11,7 8,2 39 21 66 36 WNW 1007,5 2,2 0 0,0
20.01.2018 09:00:00 12,1 11,5 11,7 8,1 40 22 72 39 W 1006,7 2,2 0 0,0
20.01.2018 08:00:00 12,1 11,6 11,6 7,9 46 25 82 45 W 1006,0 2,2 0 0,0
20.01.2018 07:00:00 11,9 11,3 11,4 7,9 42 23 74 40 W 1006,0 2,0 0 0,0
20.01.2018 06:00:00 11,7 11,1 10,7 7,9 42 23 83 45 W 1006,3 1,8 0 0,0
20.01.2018 05:00:00 11,1 10,5 9,5 7,8 44 24 74 40 W 1006,9 2,2 0 0,0
20.01.2018 04:00:00 9,8 9,0 8,3 7,9 35 19 57 31 ZW 1008,7 2,0 0 0,0
20.01.2018 03:00:00 8,7 7,8 8,1 7,9 22 12 45 24 ZZW 1011,6 4,4 0 0,0
20.01.2018 02:00:00 8,6 7,4 8,0 7,9 21 11 37 20 ZW 1014,1 3,2 0 0,0
20.01.2018 01:00:00 8,5 7,3 7,6 7,9 16 9 29 16 WZW 1016,1 8 0 0,0
20.01.2018 00:00:00 8,5 6,5 7,7 7,9 21 11 33 18 WZW 1016,8 11 0 0,0
19.01.2018 23:00:00 8,5 6,3 8,1 8,0 18 10 31 17 WZW 1017,4 19 0 0,0
19.01.2018 22:00:00 8,7 5,8 7,4 8,0 16 9 29 16 WZW 1018,0 39 0 0,0
19.01.2018 21:00:00 7,8 4,7 5,8 8,0 16 8 24 13 W 1018,2 19 0 0,0
19.01.2018 20:00:00 6,7 3,8 5,1 8,0 12 6 28 15 W 1018,7 20 0 0,0
19.01.2018 19:00:00 5,8 3,3 4,9 8,0 12 7 23 12 WNW 1018,8 41 0 0,0
19.01.2018 18:00:00 5,9 3,6 5,0 8,0 12 7 39 21 W 1018,7 54 0 0,0
19.01.2018 17:00:00 6,2 3,4 5,6 8,0 14 8 47 26 WNW 1018,5 57 0 0,0
19.01.2018 16:00:00 8,7 3,1 8,8 7,9 22 12 42 23 W 1018,4 20 55 0,0
19.01.2018 15:00:00 8,3 2,9 8,6 7,9 26 14 47 26 WNW 1017,8 50 25 0,0
19.01.2018 14:00:00 9,4 3,8 9,3 7,9 25 14 41 22 WNW 1018,0 43 60 0,0
19.01.2018 13:00:00 7,9 4,1 7,5 8,0 19 10 53 28 NW 1018,4 51 39 0,0
19.01.2018 12:00:00 9,0 3,0 9,7 8,0 25 13 46 25 WNW 1018,5 50 60 0,0
19.01.2018 11:00:00 8,0 4,4 6,3 8,1 8 5 21 12 W 1017,9 20 57 0,0
19.01.2018 10:00:00 6,2 3,7 3,8 8,1 14 7 23 12 W 1017,3 47 33 0,0
19.01.2018 09:00:00 5,5 3,2 3,4 8,2 17 9 33 18 W 1017,1 60 0 0,0
19.01.2018 08:00:00 4,1 2,9 3,0 8,3 11 6 16 9 W 1016,4 56 0 0,0
19.01.2018 07:00:00 5,2 3,7 4,3 8,3 8 5 37 20 WNW 1016,3 57 0 0,0
19.01.2018 06:00:00 6,8 5,1 5,8 8,4 16 9 44 24 W 1015,9 9 0 0,0
19.01.2018 05:00:00 7,2 4,8 4,5 8,5 19 10 32 17 W 1016,0 16 0 0,0
19.01.2018 04:00:00 4,6 2,9 2,2 8,5 13 7 18 10 W 1016,1 34 0 0,0
19.01.2018 03:00:00 4,5 2,4 3,1 8,6 10 5 32 17 W 1016,3 44 0 0,0
19.01.2018 02:00:00 5,4 3,2 4,1 8,6 9 5 14 8 W 1016,4 19 0 0,0
19.01.2018 01:00:00 5,1 2,8 4,0 8,7 10 6 22 12 W 1016,4 38 0 0,0
19.01.2018 00:00:00 6,7 3,1 6,1 8,7 17 9 35 19 WNW 1016,0 40 0 0,0
18.01.2018 23:00:00 7,2 4,5 5,7 8,8 16 9 30 16 WNW 1015,8 19 0 0,0
18.01.2018 22:00:00 7,6 4,7 6,3 8,8 28 15 49 26 WNW 1015,7 17 0 0,0
18.01.2018 21:00:00 8,6 4,6 8,0 8,8 22 12 40 21 WNW 1015,3 41 0 0,0
18.01.2018 20:00:00 8,5 5,2 7,8 8,8 24 13 37 20 WNW 1014,9 19 0 0,0
18.01.2018 19:00:00 8,7 5,6 8,1 8,7 24 13 46 25 WNW 1014,4 19 0 0,0
18.01.2018 18:00:00 9,4 6,1 8,9 8,7 31 17 55 30 WNW 1013,8 18 10 0,0
18.01.2018 17:00:00 10,6 7,3 10,3 8,6 28 15 53 29 WNW 1013,2 14 32 0,0
18.01.2018 16:00:00 10,5 7,7 10,4 8,6 29 16 50 27 WNW 1012,6 13 0 0,0
18.01.2018 15:00:00 11,0 8,9 10,4 8,5 29 16 51 28 WNW 1012,2 16 9 0,0
18.01.2018 14:00:00 11,8 10,7 10,9 8,4 27 15 54 29 WNW 1012,2 19 15 0,0
18.01.2018 13:00:00 11,2 10,6 10,8 8,2 29 15 50 27 WNW 1012,5 3,6 0 0,0
18.01.2018 12:00:00 11,8 11,3 11,5 8,2 30 16 59 32 W 1012,5 5 0 0,0
18.01.2018 11:00:00 11,7 11,2 11,3 8,1 33 18 59 32 W 1012,4 3,9 0 0,0
18.01.2018 10:00:00 11,5 11,0 11,1 8,1 35 19 60 33 W 1012,1 3,2 0 0,0
18.01.2018 09:00:00 11,4 10,9 11,0 8,0 35 19 64 35 W 1011,8 3,6 0 0,0
18.01.2018 08:00:00 11,3 10,7 10,8 7,9 35 19 61 33 W 1011,8 2,1 0 0,0
18.01.2018 07:00:00 11,1 10,5 10,6 7,9 35 19 64 35 W 1011,7 1,6 0 0,0
18.01.2018 06:00:00 10,9 10,1 10,3 7,8 38 21 68 37 W 1012,0 2,2 0 0,0
18.01.2018 05:00:00 10,8 9,9 10,1 7,7 35 19 67 36 W 1012,2 2,2 0 0,0
18.01.2018 04:00:00 10,6 9,5 9,9 7,7 40 21 71 38 W 1013,2 3,4 0 0,0
18.01.2018 03:00:00 10,4 9,2 9,8 7,7 45 25 74 40 WZW 1013,7 3,9 0 0,0
18.01.2018 02:00:00 10,5 9,3 9,6 7,7 41 22 71 38 WZW 1014,4 9 0 0,0
18.01.2018 01:00:00 10,0 8,8 9,3 7,7 38 21 72 39 W 1015,5 8 0 0,0
18.01.2018 00:00:00 9,9 8,0 9,0 7,6 44 24 75 41 WZW 1016,2 5 0 0,0
17.01.2018 23:00:00 9,9 7,7 8,7 7,6 35 19 61 33 WZW 1016,7 15 0 0,0
17.01.2018 22:00:00 9,5 7,3 8,4 7,6 33 18 60 32 W 1017,5 14 0 0,0
17.01.2018 21:00:00 9,3 6,2 8,1 7,6 27 15 50 27 W 1018,4 18 0 0,0
17.01.2018 20:00:00 8,9 6,3 7,4 7,6 22 12 47 25 W 1019,1 15 0 0,0
17.01.2018 19:00:00 8,0 5,8 6,6 7,6 18 10 34 19 W 1019,5 18 0 0,0
17.01.2018 18:00:00 7,6 5,1 6,7 7,5 16 9 34 18 W 1020,4 13 2 0,0
17.01.2018 17:00:00 8,5 4,1 7,7 7,5 22 12 44 24 W 1020,6 25 48 0,0
17.01.2018 16:00:00 8,7 5,3 6,7 7,5 25 14 50 27 W 1020,6 20 23 0,0
17.01.2018 15:00:00 9,4 4,4 9,4 7,5 29 15 57 31 WNW 1020,6 20 40 0,0
17.01.2018 14:00:00 9,4 4,4 9,2 7,5 31 17 53 28 WNW 1021,1 20 36 0,0
17.01.2018 13:00:00 9,5 4,7 7,6 7,5 30 16 49 26 WNW 1021,2 19 60 0,0
17.01.2018 12:00:00 7,1 3,5 5,5 7,6 28 15 48 26 WNW 1021,6 31 15 0,0
17.01.2018 11:00:00 8,0 3,3 7,2 7,6 22 12 49 26 NW 1020,8 18 60 0,0
17.01.2018 10:00:00 6,6 2,7 5,5 7,7 23 12 49 27 WNW 1020,0 20 17 0,0
17.01.2018 09:00:00 6,2 2,5 5,7 7,7 26 14 55 30 WNW 1019,2 17 0 0,0
17.01.2018 08:00:00 6,8 1,9 6,3 7,8 35 19 61 33 NW 1018,5 20 0 0,0

tt = temperatuur
td = dauwpunt
tt 5cm = temperatuur 5cm
tt -20cm = temperatuur -20cm
ff = windsnelheid
fx = windstoten
dd = windrichting
ppp = luchtdruk
vv = zicht
sd = Zonneschijnduur
rr = neerslag

Weerstations in de omgeving